Weather Roundup
Issued by NWS

Home | Current Version | Previous Version | Graphics & Text | Print | Product List | Glossary Off
Versions: 1 2 3 4 5 6 7 8 9 10 11 12 13 14 15 16 17 18 19 20 21 22 23 24 25 26 27 28 29 30 31 32 33 34 35 36 37 38 39 40 41 42 43 44 45 46 47 48 49 50

000
NZUS93 KARX 300210
HRRWXR

CURRENT HOURLY OBSERVATIONS ACROSS
MUCH OF THE UPPER MISSISSIPPI VALLEY
NATIONAL WEATHER SERVICE LA CROSSE WI
900 PM CDT MON AUG 29 2016


...SOUTHEAST MINNESOTA...


CITY           SKY/WX    TMP DP  RH WIND       PRES   REMARKS
ROCHESTER      CLEAR     71  69  93 CALM      30.18R
ROCHESTER/MAYO FAIR      75  70  84 S3        30.18S
WINONA         CLEAR     77  72  83 CALM      30.17R
AUSTIN         CLOUDY    72  66  83 CALM      30.17S
ALBERT LEA     CLOUDY    73  70  88 CALM      30.18R
DODGE CENTER   CLEAR     70  66  88 S3        30.18S
PRESTON        CLEAR     72  69  91 CALM      30.19S
OWATONNA       CLEAR     73  66  78 S3        30.17S
FARIBAULT      CLEAR     73  70  88 S3        30.17R
$$

...ELSEWHERE IN MINNESOTA...


CITY           SKY/WX    TMP DP  RH WIND       PRES   REMARKS
MINNEAPOLIS    MOCLDY    80  68  66 S7        30.14R
INTNL FALLS    CLEAR     65  59  81 NW7       30.10S
DULUTH         TSTM      74  68  81 S24G30    30.11S
RED WING       CLEAR     73  72  94 CALM      30.14R
REDWOOD FALLS  CLOUDY    78  72  81 SW8       30.12R
MANKATO        NOT AVBL
WORTHINGTON    PTCLDY    74  70  87 S3        30.18S FOG
FAIRMONT       CLOUDY    71  68  90 S3        30.16F FOG
$$

...SOUTHWEST WISCONSIN...


CITY           SKY/WX    TMP DP  RH WIND       PRES   REMARKS
LA CROSSE      PTCLDY    76  72  87 S5        30.16R
PRAIRIE DU CHI CLOUDY    74  72  93 CALM      30.16S FOG
BOSCOBEL       PTCLDY    73  72  96 CALM      30.18R FOG
LONE ROCK      CLEAR     72  70  93 CALM      30.18R
PLATTEVILLE    CLOUDY    75  75 100 CALM      30.19R
FORT MC COY    CLEAR     70  69  96 CALM      30.19R
CAMP DOUGLAS   PTCLDY    72  70  94 S3        30.18R
MAUSTON-NEW LI CLEAR     70  70  99 CALM      30.17S FOG
VIROQUA        FAIR      71  71 100 S3        30.20S
WIS DELLS      CLEAR     70  67  91 CALM      30.18S
$$

...ELSEWHERE IN WISCONSIN...


CITY           SKY/WX    TMP DP  RH WIND       PRES   REMARKS
MILWAUKEE      MOCLDY    75  70  84 SE6       30.17F
MADISON        PTCLDY    76  69  79 CALM      30.16F
GREEN BAY      PTCLDY    73  71  93 S5        30.16S
EAU CLAIRE     PTCLDY    77  72  84 S6        30.15R
BLACK RVR FLS  FAIR      70  70 100 CALM      30.17R FOG
MEDFORD        MOCLDY    72  72 100 S5        30.19R
WAUSAU         CLEAR     74  69  85 S3        30.17R
WIS RAPIDS     CLEAR     72  71  97 CALM      30.20R
MARSHFIELD     CLEAR     72  68  87 SW5       30.19R
RICE LAKE      CLOUDY    72  68  88 SE3       30.16F
$$

...NORTHEAST IOWA...


CITY           SKY/WX    TMP DP  RH WIND       PRES   REMARKS
WATERLOO       CLOUDY    69  67  93 CALM      30.15F
DUBUQUE        MOCLDY    71  68  90 W5        30.19R
DECORAH        CLOUDY    73  73 100 CALM      30.18S
MASON CITY     CLOUDY    68  67  96 S6        30.19S
CHARLES CITY   PTCLDY    72  72 100 CALM      30.18F FOG
OELWEIN        CLOUDY    70  70 100 S3        30.18F
$$

...ELSEWHERE IN IOWA...


CITY           SKY/WX    TMP DP  RH WIND       PRES   REMARKS
DES MOINES     CLOUDY    75  70  84 NE5       30.16R
IOWA CITY      CLOUDY    73  71  93 CALM      30.19R
FORT DODGE     CLOUDY    72  66  83 S3        30.18S
MARSHALLTOWN   CLOUDY    69  69 100 N5        30.15F
CEDAR RAPIDS   LGT RAIN  72  72 100 S3        30.17R
$$

...NORTHERN ILLINOIS...


CITY           SKY/WX    TMP DP  RH WIND       PRES   REMARKS
CHICAGO-OHARE  CLOUDY    75  72  90 NE6       30.17S
CHICAGO-MIDWAY CLOUDY    78  71  79 E9        30.16F
MOLINE         CLOUDY    75  72  90 N3        30.16R
ROCKFORD       PTCLDY    72  70  93 CALM      30.18S
PEORIA         PTCLDY    76  74  93 NE6       30.16R
$$

NOTE: "FAIR" INDICATES FEW OR NO CLOUDS BELOW 12,000 FEET WITH NO
SIGNIFICANT WEATHER AND/OR OBSTRUCTIONS TO VISIBILITY. WIND
SPEEDS ARE IN MILES-PER-HOUR.




USA.gov is the U.S. government's official web portal to all federal, state and local government web resources and services.